Date,TemperatureHighF,TemperatureAvgF,TemperatureLowF,DewpointHighF,DewpointAvgF,DewpointLowF,HumidityHigh,HumidityAvg,HumidityLow,PressureMaxIn,PressureMinIn,WindSpeedMaxMPH,WindSpeedAvgMPH,GustSpeedMaxMPH,PrecipitationSumIn
2013-1-1,34.2,31.7,31.3,30.0,27.7,26.7,86,85,82,30.02,29.98,0,0,0,0.00
2013-1-2,29.1,25.4,22.1,16.9,15.4,14.4,75,66,58,30.19,30.12,7,1,8,0.00
2013-1-3,36.0,26.0,16.9,23.5,17.7,12.0,82,71,59,30.20,30.11,9,1,9,0.00
2013-1-4,34.3,29.3,26.6,23.4,20.5,18.0,74,69,61,30.25,30.16,8,2,10,0.00
2013-1-5,39.0,30.6,24.1,25.8,21.9,18.2,78,70,58,30.36,30.15,7,1,8,8.01
2013-1-6,39.7,35.7,32.9,29.3,26.5,23.4,80,69,63,30.19,30.00,8,1,12,0.09
2013-1-7,34.5,30.6,24.1,28.6,23.4,18.5,81,75,67,30.45,30.20,8,1,8,0.00
2013-1-8,48.4,33.3,21.9,33.8,24.4,17.5,83,71,53,30.36,30.23,6,1,8,0.00
2013-1-9,46.9,38.5,30.0,41.3,32.4,23.3,87,79,66,30.47,30.23,8,0,8,0.02
2013-1-10,45.1,37.0,27.7,35.7,30.2,24.3,88,77,60,30.57,30.24,6,0,7,0.01
2013-1-11,60.6,52.9,43.0,52.2,44.4,30.4,87,74,56,30.24,29.97,7,0,11,0.13
2013-1-12,66.9,59.2,54.3,56.0,52.4,50.5,88,79,64,30.11,29.96,7,0,7,0.00
2013-1-13,68.9,61.8,56.1,54.0,51.4,48.6,86,69,58,30.00,29.89,6,0,8,0.23
2013-1-14,57.6,42.5,34.3,53.4,35.0,25.8,87,75,64,30.33,29.93,6,0,8,0.07
2013-1-15,34.2,32.1,29.8,28.8,25.0,22.0,87,75,70,30.34,30.03,8,3,9,0.17
2013-1-16,36.1,34.5,32.2,32.9,31.1,28.8,88,88,86,30.03,29.86,7,1,8,0.30
2013-1-17,35.1,33.0,29.3,29.9,27.4,24.7,86,80,73,30.17,30.03,7,0,7,0.00
2013-1-18,33.4,27.9,21.0,24.9,15.5,11.2,82,60,49,30.48,30.15,11,3,17,0.00
2013-1-19,54.0,42.1,29.8,26.1,19.8,12.8,51,41,33,30.26,29.89,11,4,12,0.00
2013-1-20,43.9,38.5,27.5,29.2,18.9,10.5,58,46,29,30.11,29.87,12,5,12,0.00
2013-1-21,34.7,25.7,13.8,16.9,12.2,-1.5,71,57,45,30.08,29.88,9,3,15,0.00
2013-1-22,17.2,11.8,7.3,0.8,-2.2,-3.8,62,53,44,30.24,30.03,14,3,14,0.00
2013-1-23,20.8,13.8,5.9,9.7,1.2,-3.9,72,57,45,30.28,30.02,8,1,8,0.00
2013-1-24,22.1,16.9,11.8,10.2,6.6,2.9,77,65,46,30.48,30.00,9,1,11,0.00
2013-1-25,22.8,17.6,11.5,15.9,8.6,1.6,79,68,54,30.46,29.98,7,1,8,0.00
2013-1-26,30.4,25.0,21.0,22.8,17.9,12.4,81,74,63,30.39,30.07,8,1,10,0.00
2013-1-27,34.7,27.1,18.7,20.3,15.9,11.4,75,63,52,30.48,30.26,7,0,7,0.09
2013-1-28,51.1,42.5,30.6,47.2,37.7,19.8,89,83,64,30.27,30.05,12,1,14,0.53
2013-1-29,66.2,56.9,50.2,55.0,49.6,47.0,89,78,61,30.08,29.83,8,1,8,0.03
2013-1-30,71.4,58.4,47.3,54.0,49.9,43.0,87,75,54,29.83,29.31,19,2,19,2.09
2013-1-31,46.9,29.5,23.5,42.7,20.6,11.8,85,69,55,29.87,29.29,17,4,20,0.06
2013-2-1,24.6,16.8,10.0,19.5,7.9,1.7,82,68,55,30.31,29.80,11,3,16,0.00
2013-2-2,27.5,19.3,9.0,20.6,11.3,1.5,82,71,55,30.30,29.95,12,2,12,0.01
2013-2-3,32.2,25.5,19.2,24.8,19.5,11.1,83,78,70,30.03,29.80,10,1,11,0.00
2013-2-4,33.3,25.7,19.2,27.9,18.2,11.2,85,74,58,30.07,29.84,7,1,16,0.00
2013-2-5,36.3,33.2,31.3,31.5,28.9,26.9,87,84,75,29.93,29.82,6,0,8,0.00
2013-2-6,34.3,30.7,25.9,27.6,25.2,21.3,86,80,70,30.29,29.93,6,1,8,0.00
2013-2-7,44.4,33.4,23.7,31.5,25.8,19.9,85,74,58,30.26,29.96,8,1,8,0.13
2013-2-8,41.7,34.8,26.2,34.6,28.2,18.4,85,77,71,30.17,29.81,15,3,19,0.11
2013-2-9,33.6,27.2,22.8,21.3,18.0,15.8,78,68,54,30.36,30.17,10,2,10,0.00
2013-2-10,53.8,35.7,19.0,31.4,21.6,14.2,82,60,35,30.32,29.98,8,1,9,0.02
2013-2-11,63.3,50.9,40.6,47.2,35.7,25.1,79,59,33,29.97,29.71,13,4,16,0.02
2013-2-12,50.4,40.8,32.5,28.2,23.8,19.7,60,51,38,30.07,29.89,10,3,10,0.00
2013-2-13,41.5,33.2,28.0,29.4,24.8,19.1,84,72,54,29.93,29.64,6,1,9,0.00
2013-2-14,44.8,35.3,28.6,32.5,27.4,22.9,82,74,59,29.98,29.86,11,1,11,0.04
2013-2-15,42.1,36.0,31.1,30.7,27.8,24.7,84,72,57,30.05,29.92,7,1,9,0.02
2013-2-16,31.3,26.9,22.8,24.5,16.5,10.5,78,65,54,30.02,29.90,8,2,9,0.00
2013-2-17,23.5,19.4,15.6,15.6,9.4,4.7,76,65,55,30.23,29.90,12,4,12,0.01
2013-2-18,48.7,30.9,11.5,29.8,16.4,3.4,72,56,41,30.27,29.89,9,1,9,0.00
2013-2-19,45.0,38.4,25.9,36.6,28.2,17.2,81,67,47,29.96,29.70,13,3,18,0.10
2013-2-20,25.5,22.3,19.9,18.4,11.8,7.4,77,64,57,30.21,29.95,12,4,13,0.00
2013-2-21,27.7,23.1,19.9,15.4,12.8,9.4,74,65,57,30.30,30.17,9,2,9,0.00
2013-2-22,44.6,35.6,22.6,36.3,26.7,13.5,81,70,53,30.22,29.96,10,1,10,0.02
2013-2-23,57.0,42.7,34.3,40.3,33.4,27.8,80,70,51,29.96,29.82,6,0,7,0.01
2013-2-24,35.2,31.0,27.1,28.0,22.7,18.5,78,71,62,30.13,29.85,8,2,8,0.00
2013-2-25,42.6,33.6,25.0,23.6,20.6,17.1,75,60,46,30.19,30.00,8,2,9,0.00
2013-2-26,40.8,38.0,34.9,33.4,26.3,18.9,82,64,48,30.03,29.56,16,2,16,0.42
2013-2-27,42.4,38.8,33.4,36.0,33.8,29.3,86,82,76,29.70,29.56,9,1,9,0.30
2013-2-28,34.3,32.7,31.6,29.6,28.3,27.3,86,84,81,29.81,29.65,8,1,9,0.04
2013-3-1,33.1,30.7,27.9,27.8,24.0,21.2,82,76,65,29.95,29.80,8,3,12,0.01
2013-3-2,30.0,27.2,25.3,22.3,19.6,17.9,79,73,65,29.95,29.88,8,3,10,0.01
2013-3-3,29.8,25.7,23.5,20.3,17.7,14.8,80,72,59,30.00,29.90,10,2,12,0.00
2013-3-4,37.8,28.7,22.6,20.3,15.6,12.9,69,59,45,30.12,29.99,8,1,8,0.00
2013-3-5,50.4,36.1,25.3,29.2,21.9,15.6,83,59,37,30.06,29.62,10,1,12,0.01
2013-3-6,38.1,34.1,31.1,30.7,28.4,27.3,86,80,68,30.10,29.61,7,1,8,0.30
2013-3-7,34.3,34.1,33.6,28.8,28.7,28.3,82,81,80,30.10,30.08,2,0,2,0.00
2013-3-11,52.9,52.4,52.0,45.4,45.3,45.2,78,76,75,29.79,29.78,2,0,2,0.05
2013-3-12,51.6,40.2,36.1,46.1,33.4,25.9,84,77,67,30.02,29.77,8,2,9,0.21
2013-3-13,35.8,32.8,31.8,28.1,26.6,24.2,84,78,67,30.01,29.93,4,0,6,0.00
2013-3-14,39.9,33.6,24.6,20.8,17.7,15.5,73,53,41,30.23,30.11,11,5,14,0.00
2013-3-15,54.0,40.3,27.1,33.0,24.9,16.3,64,55,44,30.13,29.82,8,2,9,0.00
2013-3-16,58.8,46.3,37.9,48.7,39.2,32.2,85,77,58,29.94,29.61,9,2,12,0.04
2013-3-17,38.8,34.9,30.7,32.4,24.2,20.5,80,65,54,30.15,29.94,8,4,10,0.00
2013-3-18,46.8,38.5,33.4,40.3,31.6,23.7,84,76,59,30.10,29.71,14,2,23,0.70
2013-3-19,49.3,41.9,33.6,43.2,27.1,13.9,86,59,32,29.98,29.70,13,4,17,0.00
2013-3-20,46.2,35.2,27.3,21.0,15.9,13.0,57,45,35,29.99,29.78,12,4,18,0.00
2013-3-21,28.6,25.0,18.7,17.5,11.2,7.3,73,56,44,29.93,29.84,11,4,14,0.00
2013-3-22,42.4,31.6,23.9,20.9,16.1,12.2,65,53,40,30.00,29.92,10,3,12,0.00
2013-3-23,48.0,35.8,23.2,23.0,18.9,14.6,71,52,34,30.03,29.95,9,2,9,0.00
2013-3-24,42.6,34.0,29.1,27.8,22.5,18.8,83,64,44,29.96,29.48,8,3,9,0.00
2013-3-25,39.9,34.1,31.3,31.9,28.7,26.6,85,80,72,29.73,29.45,5,0,8,0.39
2013-3-26,42.6,35.6,31.8,30.0,28.2,27.0,86,75,55,30.08,29.73,13,2,16,0.12
2013-3-27,43.5,35.8,31.8,29.8,25.9,22.7,82,68,51,30.16,30.06,12,3,16,0.02
2013-3-28,43.7,38.4,33.6,27.5,25.1,22.5,68,59,50,30.25,30.13,9,3,11,0.00
2013-3-29,53.8,44.4,36.1,31.1,26.6,23.4,68,51,36,30.26,30.16,10,2,10,0.00
2013-3-30,56.5,44.7,30.6,27.0,24.1,21.6,72,46,30,30.25,30.01,8,1,8,0.00
2013-3-31,49.8,46.3,43.0,44.6,36.3,24.1,83,70,45,30.01,29.76,3,0,7,0.13
2013-4-1,46.0,42.1,35.2,40.9,29.5,14.9,86,63,33,30.03,29.75,11,4,13,0.00
2013-4-2,42.6,34.7,26.6,16.6,14.2,11.4,54,43,33,30.19,30.01,11,4,14,0.00
2013-4-3,43.0,34.1,25.2,18.9,15.0,9.9,63,47,31,30.35,30.18,10,3,13,0.00
2013-4-4,59.7,45.1,22.5,24.4,20.1,11.6,68,39,25,30.29,29.98,6,1,8,0.00
2013-4-5,57.9,46.5,34.2,33.3,25.3,19.7,66,44,33,30.14,29.94,10,3,14,0.00
2013-4-6,39.7,32.9,28.2,24.2,19.2,17.4,68,57,46,30.27,30.14,7,1,8,0.00
2013-4-7,75.9,64.4,52.9,46.6,40.3,29.2,57,42,33,30.02,29.92,12,4,12,0.00
2013-4-8,78.6,65.5,52.2,50.6,46.5,43.4,73,52,35,30.06,29.93,8,2,8,0.00
2013-4-9,84.4,70.4,57.0,56.5,51.0,45.7,67,51,38,30.12,29.97,8,2,9,0.00
2013-4-10,88.0,74.3,62.8,60.7,53.9,48.3,70,50,37,30.01,29.83,13,4,17,0.00
2013-4-11,85.6,69.1,57.0,58.4,53.7,49.5,77,60,38,29.91,29.68,7,2,10,0.00
2013-4-12,69.1,59.9,49.3,57.0,46.1,32.7,84,62,39,29.87,29.56,13,3,19,0.09
2013-4-13,63.0,50.9,39.0,38.0,32.5,28.0,65,51,35,30.00,29.86,13,3,13,0.00
2013-4-14,64.9,51.7,35.8,37.5,33.0,27.3,72,51,33,30.16,30.00,7,1,9,0.00
2013-4-15,68.5,61.6,55.9,48.6,44.1,37.6,66,53,42,30.13,29.99,8,1,12,0.00
2013-4-16,83.8,67.6,54.9,59.6,52.6,44.7,86,61,43,30.24,30.06,9,1,13,0.30
2013-4-17,67.8,60.8,57.0,57.8,55.2,53.5,89,82,69,30.24,30.10,5,0,5,0.01
2013-4-18,86.7,72.7,62.1,63.7,56.7,51.7,76,59,42,30.12,29.83,8,1,10,0.01
2013-4-19,73.4,60.6,45.0,59.2,48.4,32.0,79,65,53,29.90,29.54,14,2,16,0.09
2013-4-20,53.4,44.0,37.0,31.7,26.6,22.0,67,51,36,30.36,29.90,17,3,17,0.00
2013-4-21,55.8,43.4,29.7,27.3,23.9,21.8,79,49,30,30.54,30.37,8,1,9,0.00
2013-4-22,64.0,52.1,41.7,33.5,27.3,23.3,49,39,27,30.43,30.25,8,2,12,0.00
2013-4-23,71.8,57.9,41.2,39.8,34.5,28.4,62,43,28,30.26,29.98,8,0,8,0.00
2013-4-24,58.8,58.1,57.7,41.4,40.8,39.7,54,52,49,29.98,29.94,0,0,0,0.00
2013-4-30,66.9,61.5,58.5,52.5,48.4,47.0,66,62,54,30.19,30.12,8,1,8,0.00
2013-5-1,75.4,65.3,55.6,52.9,46.4,35.8,73,53,31,30.32,30.18,13,0,13,0.00
2013-5-2,79.7,66.0,53.4,47.9,39.7,35.1,53,39,29,30.34,30.20,9,0,9,0.00
2013-5-3,75.9,64.5,52.9,45.6,40.4,36.9,58,42,30,30.25,30.15,13,1,13,0.00
2013-5-4,72.1,59.7,48.0,43.3,36.5,27.0,52,42,30,30.21,30.08,15,2,15,0.00
2013-5-5,72.7,61.3,51.6,39.6,34.2,27.4,55,38,22,30.15,30.02,10,2,10,0.00
2013-5-6,67.8,58.5,50.7,50.5,45.2,36.1,76,62,49,30.08,30.00,12,2,12,0.01
2013-5-7,62.2,59.3,55.2,54.9,52.0,49.1,86,77,70,30.01,29.94,5,0,5,0.09
2013-5-8,71.8,59.7,52.0,52.2,49.2,47.5,88,70,46,29.98,29.89,0,0,0,0.29
2013-5-9,75.4,63.1,54.7,58.6,52.1,47.9,83,69,45,30.04,29.93,7,0,7,0.00
2013-5-10,79.3,65.5,57.9,61.1,54.8,50.4,87,69,52,30.04,29.86,11,0,11,0.22
2013-5-11,62.8,59.9,56.1,57.6,54.4,48.1,89,82,70,29.87,29.81,10,0,10,0.83
2013-5-12,54.7,50.3,43.0,46.4,30.5,27.9,81,47,39,30.09,29.88,13,3,13,0.01
2013-5-13,53.2,45.6,38.8,37.3,30.3,24.4,74,56,36,30.19,30.07,10,2,10,0.00
2013-5-14,63.3,49.7,32.5,40.4,34.9,26.6,81,59,40,30.20,29.93,8,0,8,0.00
2013-5-15,86.7,73.0,57.6,61.8,53.7,39.2,68,52,39,29.93,29.78,14,2,14,0.00
2013-5-16,73.9,72.5,71.2,53.5,52.8,52.2,52,50,49,29.86,29.85,6,1,6,0.00
2013-5-23,78.1,65.7,59.9,63.5,59.1,55.4,88,80,54,29.92,29.82,4,0,4,0.22
2013-5-24,58.8,46.3,41.5,53.7,37.8,29.8,86,73,54,30.27,29.89,9,1,9,0.01
2013-5-25,61.3,48.1,34.2,37.9,33.9,29.0,83,60,41,30.34,30.22,7,1,7,0.00
2013-5-26,67.1,53.8,38.1,39.8,36.0,31.2,78,53,36,30.31,30.22,2,0,2,0.00
2013-5-27,63.3,53.7,43.2,49.6,43.3,36.4,81,68,56,30.27,30.12,0,0,0,0.00
2013-5-28,81.7,71.0,58.8,62.1,57.2,48.8,79,62,50,30.12,30.03,4,1,4,0.00
2013-5-29,85.8,74.0,65.8,65.0,59.0,55.5,72,60,44,30.15,30.06,7,0,7,0.00
2013-5-30,90.3,77.1,63.1,66.6,61.6,55.9,78,60,43,30.24,30.11,5,0,5,0.00
2013-5-31,88.7,78.2,66.0,66.0,61.4,56.8,75,58,43,30.17,30.03,7,0,7,0.00
2013-6-1,87.6,77.2,65.8,68.2,64.0,60.3,87,65,49,30.08,29.88,6,0,6,0.29
2013-6-2,80.1,72.8,65.3,65.5,62.0,58.8,84,69,59,29.93,29.86,11,0,11,0.09
2013-6-3,68.7,64.2,57.6,60.2,56.7,50.2,86,77,64,30.07,29.91,4,0,4,0.00
2013-6-4,71.8,60.5,47.5,50.4,45.2,40.4,83,59,39,30.18,30.06,6,0,6,0.00
2013-6-5,83.1,66.4,50.2,63.1,54.8,45.5,85,68,48,30.14,29.95,5,0,5,0.00
2013-6-6,71.4,66.6,63.0,63.8,60.5,58.5,88,81,70,30.00,29.79,2,0,2,0.34
2013-6-7,65.1,63.3,61.5,61.5,59.3,55.1,90,87,77,29.88,29.77,4,0,4,0.21
2013-6-8,74.8,64.0,57.0,59.4,55.1,51.2,84,74,58,30.13,29.88,2,0,2,0.00
2013-6-9,84.6,71.8,58.8,64.2,59.9,55.0,87,68,48,30.18,30.04,4,0,4,0.00
2013-6-10,79.9,70.2,65.3,67.9,62.3,59.5,83,76,61,30.06,29.84,10,0,10,0.00
2013-6-11,78.6,68.0,62.2,64.3,60.5,57.0,85,77,61,29.95,29.86,8,0,8,0.00
2013-6-12,84.7,77.2,66.0,70.3,65.8,59.8,83,69,57,29.97,29.77,8,0,8,0.00
2013-6-13,74.3,65.5,58.8,69.0,61.0,54.3,89,85,79,29.84,29.63,9,0,9,1.22
2013-6-14,72.5,63.3,56.5,58.0,54.7,52.2,88,75,53,30.08,29.83,7,0,7,0.00
2013-6-15,79.5,67.0,54.3,60.1,53.5,49.5,87,64,42,30.17,30.05,5,0,5,0.00
2013-6-16,74.3,67.5,61.7,65.3,59.8,53.8,85,76,66,30.06,29.98,8,0,8,0.01
2013-6-17,83.1,73.2,66.7,67.0,63.6,60.4,85,73,55,30.03,29.95,4,0,4,0.00
2013-6-18,76.6,69.9,65.7,64.7,62.1,60.8,86,77,62,29.97,29.88,3,0,3,0.00
2013-6-19,76.8,68.6,61.7,61.3,55.8,50.5,81,65,45,30.16,29.96,5,0,5,0.00
2013-6-20,63.3,58.3,55.2,53.1,51.4,49.7,83,78,69,30.21,30.16,0,0,0,0.00
2013-6-21,86.5,72.5,58.8,65.2,58.3,53.0,82,62,41,30.27,30.19,1,0,1,0.00
2013-6-22,88.2,81.9,63.3,68.0,65.1,57.6,82,58,47,30.26,30.11,4,0,4,0.00
2013-6-23,73.2,69.4,66.6,63.9,61.5,59.9,80,76,69,30.21,30.14,0,0,0,0.00
2013-6-25,88.0,80.9,70.5,69.7,65.9,58.6,82,61,50,30.11,29.96,13,0,13,0.00
2013-6-26,80.4,72.7,66.0,70.4,66.1,60.9,89,80,67,30.00,29.87,5,0,6,0.84
2013-6-27,72.3,69.2,67.1,67.3,64.9,63.4,89,86,81,29.87,29.71,0,0,0,0.51
2013-6-28,79.5,70.1,64.8,69.8,64.5,60.2,90,83,66,29.71,29.59,9,0,9,0.10
2013-6-29,79.7,69.8,62.1,65.7,62.0,58.2,88,77,58,29.74,29.62,4,0,4,0.00
2013-6-30,85.8,74.3,62.8,68.6,63.0,59.2,89,70,47,29.87,29.73,4,0,8,0.00
2013-7-1,82.6,71.9,66.0,67.8,64.2,61.7,88,78,60,29.98,29.85,4,0,4,0.64
2013-7-2,84.4,74.5,66.4,70.9,65.9,62.7,90,76,55,30.11,29.98,3,0,3,0.18
2013-7-3,85.8,73.6,69.1,69.4,64.2,62.3,81,73,58,30.21,30.10,1,0,1,0.00
2013-7-4,87.4,77.0,70.5,70.2,66.0,62.7,85,70,52,30.26,30.14,8,0,8,0.12
2013-7-5,86.7,77.1,68.7,70.5,67.1,63.7,86,72,54,30.21,30.14,8,0,8,0.00
2013-7-6,92.3,80.5,69.4,71.3,67.9,63.8,83,67,50,30.22,30.07,5,0,5,0.00
2013-7-7,81.5,73.5,68.9,68.2,65.7,63.6,86,77,62,30.16,30.07,8,0,8,0.17
2013-7-8,83.8,74.3,66.2,68.4,64.8,60.0,86,73,59,30.18,30.11,0,0,0,0.00
2013-7-9,83.7,73.8,68.9,72.2,67.4,64.8,89,81,68,30.15,30.03,0,0,0,0.98
2013-7-10,85.3,72.8,66.0,73.9,67.3,62.0,90,84,61,30.11,29.90,0,0,0,0.87
2013-7-11,74.5,66.9,65.5,66.2,62.6,60.5,89,86,66,30.02,29.92,0,0,0,0.01
2013-7-12,71.4,65.0,60.6,62.7,59.8,55.5,90,84,72,30.13,30.00,0,0,0,0.92
2013-7-13,81.0,71.1,61.9,67.7,63.8,59.0,91,79,62,30.25,30.11,0,0,0,0.00
2013-7-14,89.6,80.7,71.2,70.0,66.8,63.8,78,64,49,30.32,30.24,5,0,5,0.00
2013-7-15,89.4,79.6,68.4,71.6,66.9,61.8,82,66,52,30.38,30.27,5,0,5,0.00
2013-7-16,88.5,77.1,70.0,73.4,68.7,64.5,86,76,57,30.36,30.26,8,0,15,0.04
2013-7-17,87.6,77.1,70.5,74.4,69.2,66.4,88,77,59,30.34,30.20,0,0,0,0.00
2013-7-18,91.6,81.1,70.5,75.0,70.6,66.1,86,72,54,30.22,30.08,1,0,1,0.00
2013-7-19,90.3,76.8,70.9,76.0,69.9,65.1,86,80,61,30.10,29.94,4,0,4,0.60
2013-7-20,81.0,71.4,68.2,72.5,67.2,63.7,90,87,70,30.00,29.89,2,0,2,1.16
2013-7-21,81.7,72.6,66.2,70.4,67.0,63.1,91,83,68,30.03,29.94,2,0,2,0.00
2013-7-22,80.4,72.1,68.2,72.1,67.4,64.5,89,85,73,29.99,29.83,0,0,0,1.05
2013-7-23,82.8,72.5,64.9,68.3,65.3,61.2,90,79,59,29.85,29.75,8,0,8,0.44
2013-7-24,70.5,66.1,61.7,63.0,57.2,52.3,90,74,55,30.02,29.80,6,0,6,0.00
2013-7-25,74.8,65.2,54.7,57.7,53.8,50.8,88,68,49,30.11,29.99,2,0,2,0.00
2013-7-26,81.0,68.3,54.7,60.4,54.9,49.4,84,64,44,30.13,30.03,3,0,3,0.00
2013-7-27,71.8,66.7,61.0,67.7,61.4,54.4,89,83,67,30.04,29.89,0,0,0,0.64
2013-7-28,77.7,68.8,61.5,64.0,58.9,52.4,90,73,52,30.08,29.89,6,0,6,0.44
2013-7-29,75.0,65.8,54.5,58.3,53.9,49.1,83,67,49,30.22,30.08,8,0,8,0.00
2013-7-30,77.0,68.8,59.4,60.7,57.2,54.1,83,68,53,30.26,30.17,6,0,6,0.00
2013-7-31,75.0,67.1,61.0,64.3,60.2,55.8,86,79,66,30.19,30.00,1,0,1,0.00
2013-8-1,79.3,71.1,65.7,67.5,63.1,60.6,89,77,57,30.00,29.90,7,0,7,0.02
2013-8-2,79.7,71.6,63.1,64.1,59.9,58.1,86,68,50,30.03,29.95,7,0,7,0.00
2013-8-3,69.6,67.3,64.6,65.0,61.5,59.7,88,82,71,30.04,29.99,1,0,1,0.01
2013-8-4,74.1,66.9,61.5,60.7,56.8,52.8,88,71,50,30.12,30.02,7,0,7,0.00
2013-8-5,76.3,65.9,54.5,58.3,53.0,49.9,85,65,44,30.16,30.04,7,0,7,0.00
2013-8-6,82.4,70.9,58.8,61.9,58.0,54.3,86,66,48,30.07,30.00,5,0,5,0.00
2013-8-7,88.0,73.8,66.0,71.1,64.8,59.8,88,75,54,30.04,29.95,4,0,4,0.61
2013-8-8,82.0,71.9,67.3,72.1,67.4,63.6,90,86,71,30.04,29.97,0,0,0,0.44
2013-8-9,80.4,72.8,70.5,72.4,68.9,67.2,91,88,75,30.06,29.95,2,0,2,0.76
2013-8-10,79.9,72.1,65.8,67.5,62.9,57.7,91,75,49,30.13,30.06,0,0,0,0.00
2013-8-11,84.4,73.5,62.4,66.4,62.8,57.8,86,70,52,30.15,30.05,0,0,0,0.00
2013-8-12,83.8,74.3,66.6,67.6,64.9,62.2,86,74,57,30.10,29.94,4,0,4,0.00
2013-8-13,76.1,69.0,61.3,68.5,61.9,50.3,90,79,59,29.99,29.85,8,0,8,0.81
2013-8-14,66.7,60.1,53.1,52.7,49.7,46.1,84,69,54,30.17,29.99,5,0,5,0.00
2013-8-15,73.6,64.4,50.5,54.9,51.3,46.3,87,64,47,30.21,30.11,0,0,0,0.00
2013-8-16,76.3,65.8,54.3,57.9,54.5,49.5,86,68,51,30.19,30.12,0,0,0,0.00
2013-8-17,77.2,67.4,56.8,57.9,55.2,52.0,85,66,46,30.26,30.18,0,0,0,0.00
2013-8-18,72.9,67.6,61.9,64.0,60.7,56.0,87,79,66,30.24,30.16,0,0,0,0.04
2013-8-19,78.6,70.3,65.8,67.0,63.9,61.8,88,80,66,30.17,30.10,0,0,0,0.02
2013-8-20,79.7,70.5,60.3,63.9,60.4,56.1,87,71,54,30.24,30.13,0,0,0,0.00
2013-8-21,68.7,63.4,60.3,62.0,58.2,56.3,88,83,75,30.22,30.18,0,0,0,0.00
2013-8-23,75.4,70.4,64.0,67.5,61.2,57.9,91,74,57,30.18,30.08,0,0,0,0.02
2013-8-24,81.3,69.1,57.7,62.1,57.6,53.6,87,69,45,30.32,30.17,0,0,0,0.00
2013-8-25,83.5,71.1,59.4,63.8,58.8,54.2,85,67,47,30.40,30.26,0,0,0,0.00
2013-8-26,85.1,72.1,59.9,66.8,61.0,55.1,85,69,52,30.30,30.08,0,0,0,0.00
2013-8-27,76.3,72.2,69.3,70.4,66.5,62.0,88,82,76,30.10,30.00,0,0,0,0.10
2013-8-28,78.1,73.2,69.4,73.2,69.4,66.0,90,88,84,30.01,29.87,0,0,0,0.21
2013-8-29,81.5,74.6,69.1,69.3,67.2,65.6,90,78,63,30.06,29.95,0,0,0,0.00
2013-8-30,88.0,76.3,64.9,70.3,66.5,60.8,88,73,54,30.06,29.89,0,0,0,0.00
2013-8-31,85.1,75.6,69.6,69.6,66.9,64.8,87,75,57,29.93,29.85,0,0,0,0.00
2013-9-1,81.7,73.9,69.4,69.8,66.2,63.9,84,77,65,29.92,29.83,0,0,0,0.40
2013-9-2,83.8,73.0,65.1,71.6,66.0,60.8,88,79,63,29.91,29.80,9,0,9,0.59
2013-9-3,75.0,66.7,61.0,61.8,58.5,52.8,89,76,55,30.08,29.88,8,0,8,0.00
2013-9-4,75.9,64.8,54.7,58.1,54.7,50.4,87,71,53,30.17,30.07,4,0,6,0.00
2013-9-5,75.0,65.6,58.8,61.2,55.5,47.0,84,71,53,30.21,30.12,7,0,7,0.00
2013-9-6,72.9,61.6,48.7,52.5,48.9,44.7,87,65,42,30.27,30.15,5,0,5,0.00
2013-9-7,78.6,64.7,50.7,56.9,52.3,46.0,86,67,41,30.15,30.01,8,0,8,0.00
2013-9-8,79.7,70.2,63.1,65.7,60.7,55.0,84,72,61,30.08,29.97,6,0,6,0.00
2013-9-9,85.5,73.6,62.8,69.3,64.4,58.2,88,74,57,30.14,30.05,6,0,6,0.00
2013-9-10,87.4,77.7,69.6,73.3,68.0,63.3,81,73,61,30.21,30.11,5,0,5,0.00
2013-9-11,86.4,77.0,71.4,73.7,69.1,66.3,85,77,66,30.21,30.08,4,0,4,0.00
2013-9-12,81.5,72.2,67.1,70.1,66.1,62.7,87,81,62,30.08,29.85,9,0,9,0.40
2013-9-13,67.8,60.5,51.8,63.1,52.1,44.5,87,74,53,30.05,29.85,8,1,8,0.00
2013-9-14,63.3,55.1,49.8,46.5,44.8,42.8,84,70,51,30.19,30.04,7,0,7,0.00
2013-9-15,73.9,59.4,45.5,55.7,49.5,41.3,87,71,51,30.21,30.09,5,0,5,0.00
2013-9-16,66.0,59.9,55.0,55.8,53.0,48.9,89,78,61,30.30,30.07,4,0,7,0.17
2013-9-17,69.4,58.1,48.7,54.7,47.8,44.3,89,70,44,30.38,30.25,4,0,4,0.00
2013-9-18,71.6,60.9,50.2,55.8,49.9,43.4,82,68,52,30.27,30.13,3,0,3,0.00
2013-9-19,76.8,67.4,61.9,61.4,58.6,55.4,87,74,56,30.18,30.06,8,0,8,0.00
2013-9-20,77.4,68.7,61.3,67.7,62.1,56.1,86,80,71,30.08,29.90,3,0,3,0.00
2013-9-21,71.8,64.1,57.4,64.9,59.4,54.2,90,85,77,29.90,29.72,8,0,8,0.50
2013-9-22,61.7,56.3,51.3,54.5,49.5,44.5,90,79,58,30.03,29.84,3,0,3,0.01
2013-9-23,56.1,50.6,45.7,46.4,42.9,40.1,87,76,61,30.15,30.03,0,0,0,0.00
2013-9-24,67.3,53.1,40.8,52.8,45.3,37.5,89,76,57,30.13,29.99,0,0,0,0.00
2013-9-25,73.8,59.5,47.5,57.3,51.1,44.1,89,75,54,30.00,29.89,0,0,0,0.00
2013-9-26,72.9,61.1,49.6,55.1,50.2,45.9,89,70,42,30.10,29.95,2,0,2,0.00
2013-9-27,74.5,59.6,48.2,55.2,49.5,44.0,89,71,47,30.20,30.09,0,0,0,0.00
2013-9-28,73.2,62.3,52.3,55.1,50.4,47.0,83,66,50,30.27,30.16,9,0,9,0.00
2013-9-29,75.2,63.4,54.0,56.0,51.4,46.3,79,66,50,30.18,30.04,3,0,6,0.00
2013-9-30,67.5,61.0,55.2,59.3,54.6,49.6,86,80,74,30.09,30.03,1,0,2,0.00
2013-10-1,76.3,63.6,56.8,61.6,56.0,52.7,87,77,54,30.14,30.05,7,0,7,0.00
2013-10-2,79.2,67.4,57.7,63.6,58.4,53.2,86,74,57,30.16,30.08,5,0,7,0.00
2013-10-3,80.2,69.2,59.7,65.3,60.7,55.2,86,75,59,30.15,30.06,3,0,4,0.00
2013-10-4,82.2,71.3,64.2,66.4,62.5,60.0,87,75,57,30.17,30.08,4,0,6,0.00
2013-10-5,84.0,72.6,64.0,66.6,62.8,59.1,85,72,55,30.14,30.02,4,0,4,0.00
2013-10-6,86.2,74.1,66.4,65.2,60.7,56.5,81,64,44,30.04,29.82,6,0,8,0.00
2013-10-7,72.1,58.4,47.8,58.1,48.5,41.1,87,70,53,30.15,29.75,8,1,8,0.09
2013-10-8,66.4,53.1,42.1,46.9,42.7,37.9,86,70,48,30.31,30.14,4,0,8,0.00
2013-10-9,69.4,54.0,42.4,46.3,41.1,38.1,87,65,33,30.32,30.23,5,0,7,0.00
2013-10-10,67.6,57.8,52.3,51.5,46.0,39.5,79,65,56,30.24,30.09,5,0,5,0.00
2013-10-11,57.6,54.9,52.2,53.4,50.6,48.1,89,86,79,30.10,30.06,0,0,3,0.00
2013-10-12,71.4,62.0,55.0,60.3,55.4,51.5,88,80,67,30.17,30.06,4,0,6,0.00
2013-10-13,74.5,64.7,58.8,58.4,54.9,52.5,81,71,58,30.26,30.16,7,0,8,0.00
2013-10-14,63.7,60.3,58.8,56.7,54.3,52.0,86,80,76,30.30,30.23,3,0,3,0.00
2013-10-15,72.5,62.4,52.9,58.2,54.0,49.4,89,75,58,30.24,30.02,2,0,3,0.00
2013-10-16,70.2,63.1,57.0,57.8,52.8,46.8,81,69,60,30.03,29.92,0,0,5,0.00
2013-10-17,63.1,56.6,49.3,57.5,52.7,45.2,89,87,82,29.95,29.73,8,0,12,0.00
2013-10-18,61.5,51.9,44.6,45.7,42.0,38.4,87,71,48,30.08,29.95,6,0,7,0.00
2013-10-19,55.0,46.2,38.8,46.2,40.3,34.7,87,80,71,30.02,29.81,9,0,10,0.00
2013-10-20,58.8,47.3,39.0,40.8,37.0,34.8,86,69,47,30.09,29.98,5,0,8,0.00
2013-10-21,67.3,52.3,39.4,42.6,37.5,32.9,79,59,38,30.09,29.90,3,0,9,0.00
2013-10-22,55.2,48.7,40.8,43.4,37.6,33.3,84,66,54,30.00,29.88,6,0,7,0.00
2013-10-23,41.5,39.1,36.0,36.4,34.5,31.8,86,83,76,29.97,29.77,2,0,7,0.00
2013-10-24,48.7,37.3,33.3,39.7,32.3,29.2,86,82,60,30.17,29.96,2,0,3,0.21
2013-10-25,44.1,36.0,30.7,35.0,30.2,27.1,87,80,63,30.37,30.16,2,0,5,0.02
2013-10-26,52.9,41.5,31.6,32.3,28.2,26.2,81,61,41,30.29,29.94,7,1,9,0.00
2013-10-27,55.2,45.1,36.1,34.2,31.4,28.0,74,59,43,30.12,30.01,6,0,6,0.00
2013-10-28,61.7,45.9,31.8,39.7,33.6,27.8,86,65,40,30.28,30.11,5,0,5,0.00
2013-10-29,59.5,46.6,34.3,39.1,34.9,29.5,84,66,44,30.38,30.25,2,0,3,0.00
2013-10-30,59.7,53.1,45.7,53.5,45.6,36.8,84,76,68,30.25,30.14,2,0,3,0.00
2013-10-31,68.7,62.3,57.7,56.0,54.1,52.3,85,75,58,30.13,29.56,7,0,7,0.05
2013-11-1,70.5,59.8,52.3,56.5,48.6,42.3,87,68,49,29.75,29.44,12,2,15,0.13
2013-11-2,53.2,49.8,45.1,43.0,40.6,37.3,77,71,60,29.98,29.70,13,1,13,0.00
2013-11-3,49.3,43.3,35.1,38.2,32.3,26.9,82,66,44,30.42,29.98,8,1,8,0.00
2013-11-4,50.5,39.7,28.8,28.7,26.7,25.0,86,62,42,30.50,30.39,7,0,8,0.00
2013-11-5,57.9,47.3,38.3,34.9,29.7,24.9,64,51,40,30.50,30.34,3,0,8,0.00
2013-11-6,75.4,59.8,44.8,51.9,44.6,29.9,77,58,42,30.34,29.95,11,0,11,0.00
2013-11-7,63.5,47.5,38.5,51.1,37.8,25.1,87,70,53,30.18,29.90,12,3,13,0.50
2013-11-8,44.8,38.2,30.6,29.1,25.7,22.7,73,61,47,30.30,30.12,12,2,12,0.00
2013-11-9,58.5,43.1,28.6,31.7,25.9,22.0,80,54,33,30.28,30.02,11,1,18,0.00
2013-11-10,50.0,44.8,36.7,33.5,28.1,24.8,62,52,41,30.29,30.03,17,4,17,0.00
2013-11-11,52.2,41.0,29.8,35.6,28.2,22.8,77,61,44,30.30,30.04,10,1,10,0.00
2013-11-12,44.6,30.7,26.2,37.2,24.1,18.7,87,77,61,30.47,30.06,10,2,13,0.06
2013-11-13,35.8,28.1,21.4,23.2,19.6,16.0,81,71,58,30.52,30.38,8,1,8,0.02
2013-11-14,48.6,36.7,26.8,27.0,21.4,18.5,73,55,40,30.39,30.19,8,1,11,0.01
2013-11-15,58.8,46.6,36.1,38.6,26.4,19.3,73,46,31,30.25,30.14,8,1,9,0.01
2013-11-16,65.1,52.6,40.8,50.4,43.5,36.3,85,72,58,30.24,30.06,7,0,7,0.00
2013-11-17,66.9,59.5,52.3,56.7,50.8,44.2,84,73,59,30.06,29.61,11,1,16,0.30
2013-11-18,57.6,48.9,40.6,47.1,34.9,25.2,84,60,41,30.06,29.75,14,3,16,0.00
2013-11-19,40.3,35.9,29.7,25.3,23.7,21.2,74,61,54,30.37,30.07,10,2,13,0.00
2013-11-20,49.6,37.0,26.8,22.6,18.8,15.9,81,51,28,30.42,30.32,9,1,10,0.00
2013-11-21,59.2,46.3,34.3,41.2,31.2,17.5,64,56,47,30.40,30.24,0,0,0,0.00
2013-11-22,54.0,51.2,39.9,50.5,45.8,35.3,88,82,64,30.24,30.08,9,0,10,0.35
2013-11-23,39.7,33.0,22.5,35.3,23.0,9.4,84,67,51,30.33,30.13,14,2,19,0.00
2013-11-24,23.5,19.3,15.3,12.5,6.7,4.6,71,58,48,30.50,30.33,14,4,14,0.00
2013-11-25,41.5,27.6,13.8,17.3,11.0,5.9,72,52,31,30.49,30.21,9,0,9,0.00
2013-11-26,38.1,34.9,32.7,33.0,29.8,17.3,89,82,43,30.22,29.70,5,0,8,1.21
2013-11-27,33.8,28.4,23.0,30.8,23.4,13.8,89,82,66,30.14,29.72,0,0,8,0.02
2013-11-28,32.4,25.7,19.6,21.9,17.7,12.5,78,72,64,30.41,30.14,2,0,4,0.01
2013-11-29,36.1,30.1,26.2,22.5,20.9,19.4,78,69,56,30.60,30.41,0,0,0,0.01
2013-11-30,45.1,33.7,26.2,28.5,22.4,17.4,74,63,52,30.57,30.23,0,0,4,0.00
2013-12-1,48.2,40.9,32.7,31.6,27.9,23.4,70,60,50,30.23,29.98,2,0,7,0.00
2013-12-2,52.9,45.1,39.9,37.2,33.8,30.1,73,65,54,29.98,29.83,0,0,4,0.00
2013-12-3,57.9,46.0,38.1,41.0,36.1,32.2,81,69,52,29.92,29.84,6,0,6,0.00
2013-12-4,62.4,51.5,41.9,47.9,41.5,34.7,79,69,58,30.00,29.89,0,0,0,0.00
2013-12-5,69.1,58.7,45.0,56.8,51.4,41.3,89,77,62,30.03,29.90,9,0,9,0.93
2013-12-6,44.6,35.1,30.0,41.3,31.9,26.9,89,88,87,30.25,30.02,7,0,8,0.67
2013-12-7,30.0,27.2,23.4,26.9,22.2,16.8,88,81,74,30.52,30.22,0,0,2,0.00
2013-12-8,34.9,27.6,21.9,31.0,22.3,15.7,87,80,76,30.51,30.06,6,0,6,0.00
2013-12-9,41.5,36.9,31.6,38.5,32.9,25.6,90,85,78,30.15,29.97,7,0,8,0.18
2013-12-10,31.6,28.0,24.6,25.6,21.2,15.1,84,75,65,30.24,30.00,9,1,9,0.00
2013-12-11,34.2,26.7,19.2,19.1,16.4,12.8,77,65,54,30.36,30.22,11,2,12,0.01
2013-12-12,26.4,21.2,14.7,16.5,8.5,3.5,72,58,45,30.46,30.26,11,3,14,0.00
2013-12-13,38.1,28.0,20.1,18.6,13.3,7.6,60,54,45,30.26,30.19,9,1,9,0.00
2013-12-14,42.6,36.5,31.6,39.0,29.2,16.9,88,75,52,30.21,29.68,5,0,8,0.32
2013-12-15,41.5,31.6,26.8,38.2,26.2,20.2,88,80,71,30.00,29.65,13,3,13,0.02
2013-12-16,28.8,26.6,24.4,25.0,21.7,19.1,87,82,77,30.14,30.01,8,1,9,0.00
2013-12-17,35.8,33.1,28.6,31.4,28.3,23.0,87,82,75,30.03,29.94,6,1,9,0.08
2013-12-18,32.9,28.8,26.8,23.1,21.0,19.5,78,73,64,30.20,30.04,10,2,10,0.00
2013-12-19,58.3,44.3,29.5,37.5,26.8,17.2,70,51,44,30.14,30.04,9,2,12,0.00
2013-12-20,59.7,52.5,45.1,47.9,37.0,26.2,79,57,44,30.05,29.93,8,2,16,0.02
2013-12-21,62.4,59.5,56.1,56.6,52.4,47.9,88,77,68,29.94,29.72,8,2,12,0.16
2013-12-22,70.5,59.7,56.1,56.9,52.7,48.9,87,78,61,29.98,29.64,14,3,30,0.18
2013-12-23,55.9,40.1,30.0,49.3,35.1,21.0,88,82,69,30.27,29.97,8,1,9,0.28
2013-12-24,30.4,24.3,16.3,22.8,14.5,6.3,81,66,50,30.48,30.22,14,3,16,0.00
2013-12-25,32.4,23.5,14.2,18.8,12.6,6.2,74,63,53,30.46,30.20,4,0,4,0.00
2013-12-26,39.7,32.6,28.2,26.7,21.2,15.8,81,64,49,30.34,30.15,9,2,10,0.01
2013-12-27,45.0,33.9,25.9,24.8,19.8,15.6,69,57,40,30.39,30.29,10,1,10,0.00
2013-12-28,52.3,40.9,33.4,31.0,24.0,19.6,57,51,43,30.30,30.07,10,1,10,0.00
2013-12-29,42.6,41.0,39.0,38.9,34.9,24.3,89,80,48,30.07,29.65,4,0,5,0.82
2013-12-30,39.0,29.3,24.4,35.7,24.6,18.3,88,82,75,30.16,29.87,8,2,8,0.02
2013-12-31,27.9,26.3,23.2,22.9,19.3,16.1,84,75,67,30.30,30.07,10,2,11,0.00
2014-1-1,45.9,33.6,24.1,27.7,22.2,17.1,78,64,46,30.31,30.03,7,1,8,0.00
2014-1-2,31.6,27.0,13.3,27.1,22.2,8.2,87,82,75,30.03,29.65,4,0,6,0.00